CAPE
2 1 1 1 1 1 0 0 0 1 0 0 0 0 0 0 0 0 0 0 0 0 0 0 0 0 0 0 75 204 120 179 142 174 313 638 637 805 670 549 507 454 462 617 479
1 1 1 1 2 0 0 0 0 0 0 0 0 0 0 0 0 0 0 0 0 0 0 0 0 0 0 0 1 0 41 158 182 241 209 540 683 749 639 597 517 520 590 668 516
1 0 0 0 0 1 2 1 0 0 0 0 0 0 0 0 0 0 0 0 0 0 0 0 0 0 77 0 26 2 1 26 69 209 355 519 631 693 578 468 546 479 602 717 638
1 1 0 0 0 0 0 0 0 0 0 0 0 0 0 0 0 0 0 0 0 0 0 0 0 0 0 0 126 0 0 17 76 209 471 411 587 642 650 597 597 667 749 784 667
0 1 1 0 0 0 0 0 0 0 0 0 0 0 0 0 0 0 0 0 0 0 0 0 0 0 0 0 0 0 0 0 5 257 402 511 491 645 629 687 702 742 842 815 818
2 1 0 0 1 0 0 0 0 0 0 0 0 0 0 0 0 0 0 0 0 0 0 0 0 0 0 0 0 0 0 0 80 225 461 507 597 712 771 761 651 582 658 911 910
1 1 1 0 1 0 0 0 0 0 0 0 0 0 0 0 0 0 0 0 0 0 0 0 0 0 0 0 0 0 2 70 170 258 433 622 503 446 695 763 744 670 661 897 971
1 1 1 2 1 0 0 0 0 0 0 0 0 0 0 0 0 0 0 0 0 0 0 0 0 0 0 0 0 0 0 84 37 259 383 474 140 371 702 730 739 800 765 786 945
1 1 1 0 0 0 0 0 0 0 0 0 0 0 0 0 0 0 0 0 0 0 0 0 0 0 0 0 0 0 7 15 6 242 348 284 178 196 593 777 850 822 787 878 931
1 0 1 0 0 0 0 0 0 0 0 0 0 0 0 0 0 0 0 0 0 0 0 0 0 0 0 0 5 0 0 0 0 0 115 279 37 192 440 673 809 954 941 909 912
1 1 1 1 0 0 0 0 0 0 0 0 0 0 0 0 0 0 0 0 0 0 0 0 0 0 0 0 0 0 0 0 0 0 0 0 0 4 274 536 717 933 881 986 1019
1 1 1 1 0 0 0 0 0 0 0 0 0 0 0 0 0 0 0 0 0 0 0 0 0 0 0 0 0 0 0 0 0 0 0 0 0 14 56 328 669 962 964 959 1053
1 1 0 0 0 0 0 0 0 0 0 0 0 0 0 0 0 0 0 0 0 0 0 0 0 0 0 0 0 0 0 0 0 0 0 0 3 21 108 168 299 855 1134 1219 1215
1 0 1 0 0 0 0 0 0 0 0 0 0 0 0 0 0 0 0 0 0 0 0 0 0 0 0 0 0 0 0 0 0 0 0 0 0 0 0 0 20 213 511 644 997
0 2 1 1 0 0 0 0 0 0 0 0 0 0 0 0 0 0 0 0 0 0 0 0 0 0 0 0 0 0 0 0 0 0 0 0 0 0 0 0 0 17 142 237 403
1 2 1 0 0 0 0 0 0 0 0 0 0 0 0 0 0 0 0 0 0 0 0 0 0 0 0 0 0 0 0 0 0 0 0 0 0 0 0 0 0 0 67 207 288
2 1 3 0 0 0 0 0 0 0 0 0 0 0 0 0 0 0 0 0 0 0 0 0 0 0 0 0 0 0 0 0 0 0 0 0 0 0 0 0 0 0 2 18 207
0 0 1 0 0 0 0 0 0 0 0 0 0 0 0 0 0 0 0 0 0 0 0 0 0 0 0 0 0 0 0 0 0 0 0 0 0 0 0 0 0 0 0 0 3
0 0 0 0 0 0 0 0 0 0 0 0 0 0 0 0 0 0 0 0 0 0 0 0 0 0 0 0 0 0 0 0 0 0 0 0 0 0 0 0 0 0 0 0 0
0 0 0 0 0 0 0 0 0 0 0 0 0 0 0 0 0 0 0 0 0 0 0 0 0 0 0 0 0 0 0 0 0 0 0 0 0 0 0 0 0 0 0 0 0
0 0 0 0 0 0 0 0 0 0 0 0 0 0 0 0 0 0 0 0 0 0 0 0 0 0 0 0 0 0 0 0 0 0 0 0 0 0 0 0 0 0 0 1 3
0 0 0 0 0 0 0 0 0 0 0 0 0 0 0 0 0 0 0 0 0 0 0 0 0 0 0 0 0 0 0 0 0 0 0 0 0 0 0 0 0 0 0 8 68
0 0 0 0 0 0 0 0 0 0 0 0 0 0 0 0 0 0 0 0 0 0 0 0 0 0 0 0 0 0 0 0 0 0 0 0 0 0 0 0 0 0 1 53 333
0 0 0 0 0 0 0 0 0 0 0 0 0 0 0 4 0 5 124 177 35 0 0 0 0 0 0 0 0 0 0 0 0 0 0 0 0 0 0 0 0 0 0 0 442
0 0 0 0 0 0 0 0 0 0 0 0 0 0 7 174 58 216 446 419 180 0 0 0 0 0 0 0 0 0 0 0 0 0 0 0 0 0 0 0 0 0 0 0 365
0 0 0 0 0 0 0 0 0 0 0 0 0 0 18 306 263 414 560 328 313 328 0 0 0 0 0 0 0 0 0 0 0 0 0 0 0 0 20 0 0 0 0 0 37
0 0 0 0 0 0 0 0 0 0 0 0 17 20 92 577 501 461 467 188 130 91 163 0 0 0 0 0 0 0 0 0 0 0 0 0 0 52 73 134 0 0 0 0 0
CIN
-0 -0 -0 -0 -0 -0 -0 -0 -0 -0 -0 -0 -0 -0 -0 -0 -0 -0 -0 -0 -0 -0 -0 -0 -0 -0 -0 -0 -257 -205 -69 -38 -34 -33 -20 -59 -44 -94 -101 -100 -113 -123 -107 -111 -135
-0 -0 -0 -0 -0 -0 -0 -0 -0 -0 -0 -0 -0 -0 -0 -0 -0 -0 -0 -0 -0 -0 -0 -0 -0 -0 -0 -0 -57 -0 -83 -47 -67 -48 -25 -40 -51 -70 -84 -93 -112 -162 -177 -163 -154
-0 -0 -0 -0 -0 -0 -0 -0 -0 -0 -0 -0 -0 -0 -0 -0 -0 -0 -0 -0 -0 -0 -0 -0 -0 -0 -151 -0 -136 -124 -12 -91 -67 -56 -47 -40 -51 -75 -78 -72 -86 -109 -215 -178 -154
-0 -0 -0 -0 -0 -0 -0 -0 -0 -0 -0 -0 -0 -0 -0 -0 -0 -0 -0 -0 -0 -0 -0 -0 -0 -0 -0 -0 -130 -0 -0 -110 -77 -70 -37 -34 -52 -58 -85 -65 -84 -155 -246 -226 -192
-0 -0 -0 -0 -0 -0 -0 -0 -0 -0 -0 -0 -0 -0 -0 -0 -0 -0 -0 -0 -0 -0 -0 -0 -0 -0 -0 -0 -0 -0 -0 -0 -24 -57 -55 -51 -48 -54 -75 -158 -153 -220 -253 -206 -167
-0 -0 -0 -0 -0 -0 -0 -0 -0 -0 -0 -0 -0 -0 -0 -0 -0 -0 -0 -0 -0 -0 -0 -0 -0 -0 -0 -0 -0 -0 -0 -0 -90 -65 -57 -45 -58 -73 -99 -234 -220 -231 -250 -209 -164
-0 -0 -0 -0 -0 -0 -0 -0 -0 -0 -0 -0 -0 -0 -0 -0 -0 -0 -0 -0 -0 -0 -0 -0 -0 -0 -0 -0 -0 -0 -5 -47 -70 -54 -59 -58 -41 -42 -126 -215 -210 -235 -267 -229 -184
-0 -0 -0 -0 -0 -0 -0 -0 -0 -0 -0 -0 -0 -0 -0 -0 -0 -0 -0 -0 -0 -0 -0 -0 -0 -0 -0 -0 -0 -0 -0 -4 -45 -59 -75 -44 -7 -43 -143 -165 -152 -251 -267 -271 -225
-0 -0 -0 -0 -0 -0 -0 -0 -0 -0 -0 -0 -0 -0 -0 -0 -0 -0 -0 -0 -0 -0 -0 -0 -0 -0 -0 -0 -0 -0 -3 -12 -19 -48 -54 -51 -17 -53 -155 -166 -160 -225 -272 -263 -246
-0 -0 -0 -0 -0 -0 -0 -0 -0 -0 -0 -0 -0 -0 -0 -0 -0 -0 -0 -0 -0 -0 -0 -0 -0 -0 -0 -0 -8 -0 -0 -0 -0 -0 -56 -33 -38 -46 -157 -177 -149 -203 -239 -259 -262
-0 -0 -0 -0 -0 -0 -0 -0 -0 -0 -0 -0 -0 -0 -0 -0 -0 -0 -0 -0 -0 -0 -0 -0 -0 -0 -0 -0 -0 -0 -0 -0 -0 -0 -0 -0 -0 -52 -135 -190 -183 -200 -227 -243 -216
-0 -0 -0 -0 -0 -0 -0 -0 -0 -0 -0 -0 -0 -0 -0 -0 -0 -0 -0 -0 -0 -0 -0 -0 -0 -0 -0 -0 -0 -0 -0 -0 -0 -0 -0 -0 -0 -65 -117 -128 -163 -188 -215 -226 -203
-0 -0 -0 -0 -0 -0 -0 -0 -0 -0 -0 -0 -0 -0 -0 -0 -0 -0 -0 -0 -0 -0 -0 -0 -0 -0 -0 -0 -0 -0 -0 -0 -0 -0 -0 -0 -20 -41 -112 -204 -236 -232 -230 -194 -186
-0 -0 -0 -0 -0 -0 -0 -0 -0 -0 -0 -0 -0 -0 -0 -0 -0 -0 -0 -0 -0 -0 -0 -0 -0 -0 -0 -0 -0 -0 -0 -0 -0 -0 -0 -0 -0 -0 -0 -0 -222 -207 -224 -202 -197
-0 -0 -0 -0 -0 -0 -0 -0 -0 -0 -0 -0 -0 -0 -0 -0 -0 -0 -0 -0 -0 -0 -0 -0 -0 -0 -0 -0 -0 -0 -0 -0 -0 -0 -0 -0 -0 -0 -0 -0 -0 -186 -211 -187 -215
-0 -0 -0 -0 -0 -0 -0 -0 -0 -0 -0 -0 -0 -0 -0 -0 -0 -0 -0 -0 -0 -0 -0 -0 -0 -0 -0 -0 -0 -0 -0 -0 -0 -0 -0 -0 -0 -0 -0 -0 -0 -0 -172 -151 -164
-0 -0 -0 -0 -0 -0 -0 -0 -0 -0 -0 -0 -0 -0 -0 -0 -0 -0 -0 -0 -0 -0 -0 -0 -0 -0 -0 -0 -0 -0 -0 -0 -0 -0 -0 -0 -0 -0 -0 -0 -0 -0 -250 -277 -202
-0 -0 -0 -0 -0 -0 -0 -0 -0 -0 -0 -0 -0 -0 -0 -0 -0 -0 -0 -0 -0 -0 -0 -0 -0 -0 -0 -0 -0 -0 -0 -0 -0 -0 -0 -0 -0 -0 -0 -0 -0 -0 -0 -0 -282
-0 -0 -0 -0 -0 -0 -0 -0 -0 -0 -0 -0 -0 -0 -0 -0 -0 -0 -0 -0 -0 -0 -0 -0 -0 -0 -0 -0 -0 -0 -0 -0 -0 -0 -0 -0 -0 -0 -0 -0 -0 -0 -0 -0 -0
-0 -0 -0 -0 -0 -0 -0 -0 -0 -0 -0 -0 -0 -0 -0 -0 -0 -0 -0 -0 -0 -0 -0 -0 -0 -0 -0 -0 -0 -0 -0 -0 -0 -0 -0 -0 -0 -0 -0 -0 -0 -0 -0 -0 -0
-0 -0 -0 -0 -0 -0 -0 -0 -0 -0 -0 -0 -0 -0 -0 -0 -0 -0 -0 -0 -0 -0 -0 -0 -0 -0 -0 -0 -0 -0 -0 -0 -0 -0 -0 -0 -0 -0 -0 -0 -0 -0 -0 -83 -201
-0 -0 -0 -0 -0 -0 -0 -0 -0 -0 -0 -0 -0 -0 -0 -0 -0 -0 -0 -0 -0 -0 -0 -0 -0 -0 -0 -0 -0 -0 -0 -0 -0 -0 -0 -0 -0 -0 -0 -0 -0 -0 -0 -219 -246
-0 -0 -0 -0 -0 -0 -0 -0 -0 -0 -0 -0 -0 -0 -0 -0 -0 -0 -0 -8 -0 -0 -0 -0 -0 -0 -0 -0 -0 -0 -0 -0 -0 -0 -0 -0 -0 -0 -0 -0 -0 -0 -50 -227 -189
-0 -0 -0 -0 -0 -0 -0 -0 -0 -0 -0 -0 -0 -0 -0 -55 -0 -147 -69 -86 -92 -0 -0 -0 -0 -0 -0 -0 -0 -0 -0 -0 -0 -0 -0 -0 -0 -0 -0 -0 -0 -0 -0 -0 -197
-0 -0 -0 -0 -0 -0 -0 -0 -0 -0 -0 -0 -0 -0 -18 -76 -109 -73 -40 -71 -147 -0 -0 -0 -0 -0 -0 -0 -0 -0 -0 -0 -0 -0 -0 -0 -0 -0 -0 -0 -0 -0 -0 -0 -164
-0 -0 -0 -0 -0 -0 -0 -0 -0 -0 -0 -0 -0 -0 -156 -123 -83 -52 -56 -78 -88 -125 -0 -0 -0 -0 -0 -0 -0 -0 -0 -0 -0 -0 -0 -0 -0 -0 -52 -0 -0 -0 -0 -0 -133
-0 -0 -0 -0 -0 -0 -0 -0 -0 -0 -0 -0 -89 -119 -133 -106 -165 -157 -134 -96 -128 -169 -138 -0 -0 -0 -0 -0 -0 -0 -0 -0 -0 -0 -0 -0 -0 -173 -125 -144 -0 -0 -0 -0 -0
Wind_Speed
24 24 24 24 23 23 22 22 21 21 21 21 22 22 23 23 23 12 9 8 9 6 15 12 14 15 16 15 15 17 17 17 18 19 19 17 18 18 18 19 19 16 17 15 20
24 24 24 24 24 24 24 23 23 23 22 22 22 22 23 23 19 14 11 19 3 8 8 10 11 14 16 15 15 15 15 15 13 15 18 17 17 18 18 18 18 18 18 19 19
25 25 25 25 25 25 25 25 24 24 24 23 22 22 22 21 14 10 16 18 11 4 9 10 12 13 14 13 13 12 12 13 13 13 15 15 16 16 17 17 15 16 19 21 21
25 26 26 26 26 26 25 25 26 25 25 24 23 23 22 15 10 11 16 15 3 2 8 9 10 12 13 13 13 14 12 11 15 11 13 13 15 16 13 18 17 16 19 21 22
26 26 27 27 27 27 27 27 27 26 26 25 24 22 16 13 11 13 14 10 5 3 5 8 10 11 13 13 13 13 14 17 15 13 8 11 13 14 14 17 17 17 18 19 20
26 26 27 27 28 28 28 28 28 27 27 25 23 21 14 15 11 10 14 10 6 7 7 8 10 12 13 14 12 12 13 18 13 10 9 9 12 14 15 15 15 15 16 16 17
26 27 28 28 28 28 29 29 29 29 27 23 20 17 15 13 11 17 15 11 10 10 8 9 11 12 14 16 17 14 13 12 11 11 12 9 8 8 12 13 13 13 14 15 15
27 28 28 29 29 29 29 29 29 27 22 17 16 17 17 15 18 21 13 14 15 14 15 16 13 14 15 17 16 15 13 10 13 11 13 9 8 8 10 11 11 12 14 14 15
28 28 29 29 29 29 29 28 26 20 16 13 16 17 19 19 17 16 11 10 8 12 13 13 13 15 14 15 13 14 11 10 13 9 10 8 11 7 9 10 11 12 13 15 14
28 29 29 29 29 29 28 24 17 16 16 17 18 19 19 16 17 18 13 10 11 8 11 12 14 15 15 14 11 11 12 12 12 15 7 8 16 10 8 11 12 13 13 14 14
29 29 29 29 29 28 23 16 18 17 15 15 14 16 18 20 17 15 13 9 11 13 13 16 16 15 13 13 14 13 13 14 12 13 9 11 15 16 8 11 11 14 14 14 15
29 29 29 29 28 24 19 16 16 18 21 16 18 23 24 20 19 17 12 13 14 14 15 17 20 17 16 9 6 10 14 15 18 12 7 18 13 11 7 9 11 13 15 14 13
29 28 29 29 26 19 17 13 17 19 18 18 15 16 17 13 19 19 12 14 18 17 18 20 20 17 12 9 8 10 13 15 18 26 16 19 8 10 7 16 15 12 14 14 12
28 29 29 29 17 20 15 15 23 14 17 16 15 15 13 14 20 18 14 15 20 22 20 25 21 14 14 10 6 13 13 16 18 24 16 15 13 13 11 15 10 11 15 18 15
29 29 28 24 22 16 15 22 15 14 17 17 14 14 12 11 17 16 17 18 20 21 21 21 18 18 18 17 10 20 14 17 22 22 18 13 14 15 22 17 14 11 16 17 13
30 29 26 19 17 16 19 18 13 15 16 15 14 15 13 13 15 13 14 18 17 19 24 23 18 21 23 17 17 11 14 17 18 17 15 15 10 18 21 15 19 17 9 16 15
29 27 21 16 15 16 19 12 16 17 17 17 18 19 19 15 12 12 13 18 22 24 26 22 24 18 17 15 14 8 9 15 18 14 15 15 17 12 18 15 9 17 15 6 14
27 22 15 13 14 16 13 13 18 17 16 18 21 21 15 12 13 12 10 19 23 24 23 28 27 23 18 18 17 11 9 12 17 16 17 16 24 23 17 19 19 20 15 16 14
22 16 16 17 12 14 11 16 17 15 17 20 20 16 17 16 15 12 14 16 20 24 27 26 30 21 21 18 16 16 15 19 20 20 21 22 26 26 22 17 18 21 18 14 14
17 16 18 17 10 13 13 17 16 15 19 19 18 17 18 19 16 11 14 18 23 23 25 24 27 23 19 19 21 22 10 15 17 16 23 23 25 26 23 21 18 15 15 12 8
15 15 18 13 15 14 15 16 18 19 17 17 16 18 18 17 17 15 15 23 23 26 27 27 24 22 19 24 21 20 19 18 17 20 28 32 30 26 28 24 20 18 16 23 17
16 15 16 17 15 16 16 16 18 19 15 17 16 15 16 17 17 16 15 24 18 19 29 25 26 32 27 18 20 23 23 18 26 23 24 29 33 21 25 25 25 21 21 19 21
15 15 15 17 17 17 18 19 18 18 16 13 15 13 14 16 16 17 18 22 17 19 23 26 31 30 28 27 23 25 22 20 21 23 26 34 28 19 26 30 30 23 24 23 15
16 16 16 16 17 18 20 20 17 14 19 18 19 16 15 17 16 20 22 20 20 25 26 21 28 35 32 26 24 26 24 24 24 29 30 36 34 31 30 30 25 18 8 3 6
17 16 16 17 17 16 18 19 20 16 14 16 13 11 15 19 20 17 19 21 18 19 24 26 35 33 34 32 27 25 26 26 26 30 33 38 32 31 25 29 27 29 7 1 6
16 15 15 16 18 17 15 17 14 15 15 15 11 13 22 24 23 20 23 19 19 21 20 27 34 31 35 33 31 33 29 24 24 23 27 26 30 22 25 26 26 27 26 2 4
18 15 14 12 14 14 14 14 15 13 13 11 18 23 25 27 26 29 23 26 21 22 24 26 32 29 35 27 28 37 35 28 24 22 21 22 23 24 24 24 24 27 27 23 4
Wind_Direction
316 315 316 315 314 309 305 303 297 291 285 281 276 277 282 286 285 335 355 28 3 234 103 33 44 70 73 75 98 108 87 73 72 103 78 71 62 55 43 58 50 49 60 75 109
314 313 312 313 313 311 308 303 300 294 286 281 277 278 282 289 304 311 324 272 80 60 26 22 35 67 34 49 66 73 55 57 36 51 75 75 72 74 52 63 46 29 54 90 106
312 312 310 308 307 307 306 303 299 295 289 283 279 276 277 289 318 321 292 281 131 14 335 359 12 28 17 35 40 34 24 14 1 360 54 48 63 68 56 53 68 83 92 108 114
315 313 312 310 307 305 303 300 297 294 290 287 283 277 275 317 328 314 294 302 66 53 323 346 354 2 13 21 32 10 43 101 322 36 40 33 26 27 69 29 42 80 102 111 120
313 313 312 310 307 305 302 300 298 294 290 286 287 288 316 317 323 303 305 333 349 6 338 331 332 344 342 357 14 7 331 285 325 0 64 33 31 33 49 20 49 77 100 115 121
310 310 311 309 306 303 301 299 297 295 290 287 290 294 317 301 323 332 304 310 327 311 314 323 324 328 330 332 348 354 344 293 346 28 52 74 23 20 23 47 60 80 101 115 123
308 308 308 307 305 301 297 295 294 293 290 290 295 302 307 302 319 279 291 300 298 299 304 315 315 313 311 299 303 326 345 356 11 29 39 35 57 121 31 70 76 91 104 120 129
311 311 310 308 304 299 294 290 290 292 301 311 305 300 295 298 287 275 293 289 282 285 288 287 299 298 298 291 305 314 338 2 355 32 18 80 134 132 104 109 111 110 125 134 145
314 314 311 308 303 295 288 284 288 314 325 329 311 301 291 289 288 290 284 292 303 299 295 294 290 286 296 303 318 325 340 345 348 34 17 68 190 125 117 138 144 143 145 152 151
315 315 312 308 301 292 284 287 325 327 324 314 304 297 288 288 287 286 286 276 292 299 298 286 282 279 283 295 307 319 331 334 346 355 75 152 205 186 111 153 173 169 164 164 163
316 313 310 304 296 289 300 325 324 323 323 315 314 301 295 286 289 287 282 266 279 280 275 277 267 263 272 285 296 309 320 320 354 16 34 181 199 208 142 160 172 182 175 172 174
314 311 306 300 292 291 310 325 335 324 315 318 304 290 284 290 283 281 275 262 263 267 271 271 263 264 270 287 317 315 317 313 322 18 45 215 188 174 118 169 188 185 184 177 171
311 310 303 299 292 315 317 338 327 329 325 322 321 307 298 290 277 272 265 264 261 260 261 265 270 263 268 266 289 301 306 315 322 299 341 309 167 172 59 215 208 183 187 178 169
310 307 305 301 315 311 321 327 309 334 325 333 330 327 315 300 283 271 264 262 265 258 261 264 265 262 261 254 247 282 306 313 322 300 333 325 0 16 195 226 182 177 178 181 168
307 305 305 309 303 312 324 309 326 334 313 330 339 333 329 298 299 275 263 263 259 260 258 264 263 257 262 262 255 273 299 308 306 299 314 337 344 342 286 255 230 162 164 169 156
303 300 300 318 317 312 310 314 332 319 307 327 333 327 327 307 297 300 266 268 265 261 261 260 274 265 259 272 262 274 291 306 313 308 311 320 358 269 333 273 351 335 104 160 144
298 291 308 324 319 312 307 333 315 308 320 318 317 313 307 307 294 291 264 257 255 252 252 259 259 273 273 248 268 245 264 288 294 304 303 311 290 203 241 246 128 251 259 300 153
296 307 342 336 331 313 326 326 306 317 315 316 312 307 304 310 294 292 271 259 258 255 256 251 255 254 262 259 255 239 239 278 291 292 295 299 252 232 211 251 239 242 200 210 174
300 338 340 327 339 322 331 312 314 317 318 312 310 312 305 303 305 281 279 262 257 249 252 255 254 265 256 259 247 255 252 272 284 285 285 279 253 244 237 242 252 270 210 191 179
329 344 336 327 18 331 328 315 317 319 315 315 304 313 299 302 300 292 277 277 260 255 253 258 258 255 260 254 254 254 246 270 279 285 276 274 265 255 248 256 248 219 208 182 74
339 345 331 9 345 330 320 320 315 309 310 309 304 301 304 299 303 304 302 274 269 258 252 249 256 253 255 248 243 246 254 266 280 277 265 252 259 281 234 253 253 236 215 281 342
342 339 333 337 336 329 324 323 321 311 311 300 299 309 302 302 307 310 311 279 277 261 244 247 252 249 248 258 258 253 252 255 263 271 274 268 262 292 266 279 268 243 232 318 319
342 342 340 330 331 327 319 318 319 317 310 305 299 300 308 305 309 299 305 302 280 260 247 240 244 246 247 252 255 254 255 259 267 272 270 254 272 296 280 267 245 228 239 292 356
351 344 337 330 328 325 322 316 318 335 305 293 291 297 301 297 295 296 301 306 293 261 253 242 246 241 243 250 253 252 255 257 262 263 264 253 264 267 278 271 234 211 192 118 38
356 355 348 338 332 331 327 315 316 327 320 309 305 292 302 291 282 293 307 296 295 285 257 247 244 246 247 251 254 256 258 256 261 265 263 253 270 273 298 285 238 249 349 357 19
27 24 14 351 330 331 340 322 331 328 321 318 307 301 290 279 275 275 284 306 287 291 267 252 245 248 248 252 254 254 255 258 264 272 269 270 265 288 297 302 285 284 293 236 189
20 35 28 31 10 349 337 333 331 345 336 326 302 292 285 271 270 272 286 269 292 287 271 255 244 247 247 255 253 251 250 258 266 270 273 274 280 284 296 305 299 294 297 300 271